Regional Weather Roundup
Issued by NWS Charleston, WV

Home | Current Version | Previous Version | Graphics & Text | Print | Product List | Glossary On
Versions: 1 2 3 4 5 6 7 8 9 10 11 12 13 14 15 16 17 18 19 20 21 22 23 24 25 26 27 28 29 30 31 32 33 34 35 36 37 38 39 40 41 42 43 44 45 46 47 48 49 50
000
ASUS41 KRLX 270910
RWRRLX
West Virginia Regional Weather Roundup
National Weather Service Charleston WV
400 AM EST FRI FEB 27 2015

Note: "fair" indicates few or no clouds below 12,000 feet with no
significant weather and/or obstructions to visibility.

WVZ003-271000-
Northern Panhandle of West Virginia

CITY           SKY/WX    TMP DP  RH WIND       PRES   REMARKS
WHEELING       CLOUDY     6   1  80 NW5       30.29R WCI  -3
$$

WVZ009-271000-
Northwest West Virginia

CITY           SKY/WX    TMP DP  RH WIND       PRES   REMARKS
PARKERSBURG    CLEAR     10   3  73 NW5       30.38R WCI   2
$$

WVZ006-271000-
Western West Virginia

CITY           SKY/WX    TMP DP  RH WIND       PRES   REMARKS
HUNTINGTON     CLOUDY    13   7  77 NW7       30.36R WCI   3
$$

WVZ015-271000-
West Central West Virginia

CITY           SKY/WX    TMP DP  RH WIND       PRES   REMARKS
CHARLESTON     LGT SNOW  18  13  80 NW7       30.31R WCI   9
$$

WVZ022-031-271000-
North Central West Virginia

CITY           SKY/WX    TMP DP  RH WIND       PRES   REMARKS
CLARKSBURG     LGT SNOW  14   9  80 N7        30.27R WCI   4
MORGANTOWN     CLOUDY    13   5  70 NW5       30.28R WCI   5
$$

WVZ025-035-042-045-271000-
Southern West Virginia

CITY           SKY/WX    TMP DP  RH WIND       PRES   REMARKS
BECKLEY        CLOUDY    19  13  77 NW8       30.14R WCI   9
LOGAN          LGT SNOW  18  16  93 N6G13     30.21R WCI   9
BLUEFIELD      CLOUDY    22  16  78 NW6       30.11R
LEWISBURG      PTCLDY    21  14  72 CALM      30.14R
$$

WVZ047-271000-
Northern Mountains of West Virginia

CITY           SKY/WX    TMP DP  RH WIND       PRES   REMARKS
ELKINS         LGT SNOW N/A N/A N/A NW6       30.17R
$$

WVZ052-271000-
Eastern Panhandle of West Virginia

CITY           SKY/WX    TMP DP  RH WIND       PRES   REMARKS
MARTINSBURG    CLOUDY    28  16  60 NW12      30.21R
PETERSBURG     CLOUDY    27  13  56 N3        30.21R
$$


USA.gov is the U.S. government's official web portal to all federal, state and local government web resources and services.